AJ7DN Weather Reports


time (UTC)temp
C
wind
direction
speed
KPH
gust
KPH
rain 1hr
cm
rain 24hr
cm
rain mn
cm
humidity
%
barometer
mb
20260506013957 18 206 0.0 0.0 0.00 0.00 0.00 68 1019.5
20260506013455 18 105 0.0 0.0 0.00 0.00 0.00 67 1019.5
20260506012951 18 79 0.0 1.6 0.00 0.00 0.00 67 1019.4
20260506012448 18 114 0.0 0.0 0.00 0.00 0.00 67 1019.8
20260506011945 18 134 0.0 0.0 0.00 0.00 0.00 68 1019.5
20260506011442 18 75 0.0 1.6 0.00 0.00 0.00 67 1019.7
20260506010939 18 133 0.0 0.0 0.00 0.00 0.00 68 1019.4
20260506010438 18 133 0.0 0.0 0.00 0.00 0.00 67 1019.5
20260506005933 18 113 0.0 0.0 0.00 0.00 0.00 67 1019.5
20260506005432 19 69 0.0 0.0 0.00 0.00 0.00 65 1019.7
20260506004926 19 108 0.0 0.0 0.00 0.00 0.00 64 1019.4
20260506004425 20 108 0.0 0.0 0.00 0.00 0.00 63 1019.5
20260506003920 20 93 0.0 0.0 0.00 0.00 0.00 65 1019.3
20260506003417 20 107 0.0 0.0 0.00 0.00 0.00 63 1019.7
20260506002914 20 89 0.0 0.0 0.00 0.00 0.00 61 1019.9
20260506002410 20 71 0.0 0.0 0.00 0.00 0.00 64 1019.7
20260506001905 19 100 0.0 0.0 0.00 0.00 0.00 64 1019.6
20260506001402 18 57 0.0 1.6 0.00 0.00 0.00 65 1019.9
20260506000859 19 141 1.6 1.6 0.00 0.00 0.00 64 1019.8
20260506000357 19 105 0.0 0.0 0.00 0.00 0.00 65 1019.7
20260505235854 18 116 0.0 0.0 0.00 0.00 0.00 66 1019.7
20260505235351 19 133 0.0 0.0 0.00 0.00 0.00 65 1019.8
20260505234848 19 127 0.0 0.0 0.00 0.00 0.00 64 1020.0
20260505234346 19 136 0.0 0.0 0.00 0.00 0.00 64 1020.1
20260505233842 18 95 0.0 0.0 0.00 0.00 0.00 66 1020.0
20260505233341 18 104 0.0 0.0 0.00 0.00 0.00 67 1020.2
20260505232838 18 75 0.0 0.0 0.00 0.00 0.00 67 1020.1
20260505232336 18 112 0.0 0.0 0.00 0.00 0.00 68 1020.2
20260505231832 18 129 0.0 0.0 0.00 0.00 0.00 68 1020.4
20260505231330 17 136 0.0 1.6 0.00 0.00 0.00 70 1020.1
20260505230828 17 245 0.0 0.0 0.00 0.00 0.00 69 1020.2
20260505230324 17 131 0.0 0.0 0.00 0.00 0.00 69 1020.0
20260505225821 18 111 0.0 0.0 0.00 0.00 0.00 68 1020.3
20260505225318 18 227 0.0 1.6 0.00 0.00 0.00 68 1020.2
20260505224813 17 115 0.0 1.6 0.00 0.00 0.00 69 1020.4
20260505224311 18 12 1.6 1.6 0.00 0.00 0.00 67 1020.3
20260505223808 18 82 0.0 0.0 0.00 0.00 0.00 68 1020.2
20260505223306 18 72 1.6 1.6 0.00 0.00 0.00 68 1020.3
20260505222801 18 69 0.0 1.6 0.00 0.00 0.00 68 1020.6
20260505222257 17 84 0.0 0.0 0.00 0.00 0.00 68 1020.5
20260505221755 17 78 0.0 0.0 0.00 0.00 0.00 69 1020.3
20260505221251 17 75 0.0 0.0 0.00 0.00 0.00 69 1020.6
20260505220748 17 81 1.6 1.6 0.00 0.00 0.00 69 1020.5
20260505220245 17 99 0.0 0.0 0.00 0.00 0.00 69 1020.6
20260505215743 17 155 0.0 1.6 0.00 0.00 0.00 69 1020.4
20260505215241 18 83 0.0 1.6 0.00 0.00 0.00 68 1020.6
20260505214739 17 258 0.0 0.0 0.00 0.00 0.00 69 1020.7
20260505214236 18 212 1.6 1.6 0.00 0.00 0.00 68 1020.7
20260505213733 18 69 0.0 1.6 0.00 0.00 0.00 66 1020.5
20260505213230 18 115 0.0 0.0 0.00 0.00 0.00 69 1020.5
20260505212726 18 200 1.6 1.6 0.00 0.00 0.00 68 1020.7
20260505212224 18 191 1.6 1.6 0.00 0.00 0.00 66 1020.8
20260505211720 18 112 0.0 0.0 0.00 0.00 0.00 67 1020.5
20260505211218 18 117 0.0 0.0 0.00 0.00 0.00 67 1020.5
20260505210714 18 90 0.0 0.0 0.00 0.00 0.00 68 1020.7
20260505210211 18 170 0.0 1.6 0.00 0.00 0.00 69 1020.6
20260505205708 18 124 0.0 0.0 0.00 0.00 0.00 69 1020.7
20260505205207 18 190 1.6 3.2 0.00 0.00 0.00 67 1021.0
20260505204702 18 183 0.0 0.0 0.00 0.00 0.00 68 1020.8
20260505204201 17 73 0.0 0.0 0.00 0.00 0.00 69 1020.5
20260505203658 17 144 0.0 0.0 0.00 0.00 0.00 70 1020.8
20260505203154 17 227 4.8 4.8 0.00 0.00 0.00 70 1020.9
20260505202650 17 122 0.0 1.6 0.00 0.00 0.00 71 1020.9
20260505202146 17 21 1.6 1.6 0.00 0.00 0.00 70 1020.9
20260505201643 17 92 0.0 0.0 0.00 0.00 0.00 69 1021.1
20260505201141 17 157 0.0 0.0 0.00 0.00 0.00 72 1021.0
20260505200639 17 248 1.6 1.6 0.00 0.00 0.00 72 1021.1
20260505200135 16 223 1.6 3.2 0.00 0.00 0.00 71 1021.2
20260505195632 17 248 4.8 4.8 0.00 0.00 0.00 70 1021.0
20260505195129 17 124 1.6 3.2 0.00 0.00 0.00 70 1021.1
20260505194626 17 148 1.6 1.6 0.00 0.00 0.00 71 1021.0
20260505194122 17 38 3.2 3.2 0.00 0.00 0.00 70 1021.1
20260505193619 16 92 0.0 1.6 0.00 0.00 0.00 71 1021.2
20260505193116 16 316 1.6 3.2 0.00 0.00 0.00 72 1021.3
20260505192615 17 133 0.0 0.0 0.00 0.00 0.00 72 1021.2
20260505192111 17 102 0.0 0.0 0.00 0.00 0.00 71 1021.2
20260505191610 17 92 0.0 0.0 0.00 0.00 0.00 70 1021.1
20260505191107 17 153 1.6 1.6 0.00 0.00 0.00 72 1021.2
20260505190602 16 176 1.6 3.2 0.00 0.00 0.00 72 1021.3
20260505190058 16 242 0.0 1.6 0.00 0.00 0.00 72 1021.3
20260505185555 16 46 1.6 3.2 0.00 0.00 0.00 71 1021.2
20260505185051 16 82 0.0 0.0 0.00 0.00 0.00 72 1021.2
20260505184548 16 47 0.0 1.6 0.00 0.00 0.00 73 1021.1
20260505184045 16 105 0.0 0.0 0.00 0.00 0.00 72 1021.3
20260505183541 17 110 0.0 1.6 0.00 0.00 0.00 71 1021.1
20260505183039 16 96 0.0 1.6 0.00 0.00 0.00 72 1021.0
20260505182535 16 185 0.0 1.6 0.00 0.00 0.00 72 1021.3
20260505182032 16 130 0.0 0.0 0.00 0.00 0.00 72 1021.0
20260505181529 17 68 0.0 0.0 0.00 0.00 0.00 73 1020.8
20260505181026 16 75 0.0 0.0 0.00 0.00 0.00 72 1021.1
20260505180522 16 51 1.6 1.6 0.00 0.00 0.00 73 1021.2
20260505180021 16 121 0.0 1.6 0.00 0.00 0.00 75 1020.9
20260505175514 15 95 0.0 1.6 0.00 0.00 0.00 76 1021.0
20260505175012 15 60 1.6 1.6 0.00 0.00 0.00 75 1021.2
20260505174509 15 64 0.0 0.0 0.00 0.00 0.00 77 1021.1
20260505174004 15 244 1.6 3.2 0.00 0.00 0.00 79 1021.0
20260505173501 15 200 0.0 0.0 0.00 0.00 0.00 78 1021.2
20260505172958 15 93 0.0 0.0 0.00 0.00 0.00 78 1021.3
20260505172457 15 218 0.0 1.6 0.00 0.00 0.00 78 1021.1
20260505171956 15 95 0.0 0.0 0.00 0.00 0.00 78 1020.9
20260505171453 15 183 0.0 1.6 0.00 0.00 0.00 78 1020.8
20260505170950 14 50 0.0 1.6 0.00 0.00 0.00 79 1020.9
20260505170447 14 70 1.6 1.6 0.00 0.00 0.00 80 1020.8
20260505165942 14 116 0.0 0.0 0.00 0.00 0.00 79 1021.0
20260505165438 14 73 0.0 0.0 0.00 0.00 0.00 79 1020.7
20260505164934 14 187 1.6 1.6 0.00 0.00 0.00 81 1020.9
20260505164431 14 167 0.0 1.6 0.00 0.00 0.00 80 1021.0
20260505163928 14 87 0.0 0.0 0.00 0.00 0.00 81 1020.8
20260505163427 13 204 1.6 1.6 0.00 0.00 0.00 81 1020.8
20260505162926 13 65 0.0 0.0 0.00 0.00 0.00 82 1020.8
20260505162421 13 126 0.0 0.0 0.00 0.00 0.00 83 1020.8
20260505161918 13 139 0.0 0.0 0.00 0.00 0.00 83 1020.6
20260505161415 13 50 0.0 0.0 0.00 0.00 0.00 83 1020.9
20260505160912 13 103 0.0 0.0 0.00 0.00 0.00 85 1020.5
20260505160410 13 232 1.6 3.2 0.00 0.00 0.00 84 1020.7
20260505153349 13 77 0.0 0.0 0.00 0.00 0.00 85 1020.8
20260505152846 13 42 0.0 0.0 0.00 0.00 0.00 86 1020.6
20260505152344 12 54 1.6 1.6 0.00 0.00 0.00 86 1020.6
20260505151843 12 84 0.0 0.0 0.00 0.00 0.00 86 1020.5
20260505151340 12 100 0.0 0.0 0.00 0.00 0.00 87 1020.6
20260505150837 12 90 0.0 0.0 0.00 0.00 0.00 87 1020.4
20260505150335 12 85 0.0 0.0 0.00 0.00 0.00 87 1020.5
20260505140258 12 131 0.0 0.0 0.00 0.00 0.00 89 1019.9
20260505130222 11 115 0.0 0.0 0.00 0.00 0.00 90 1019.9
20260505124712 11 138 0.0 0.0 0.00 0.00 0.00 90 1019.6
20260505124209 11 139 0.0 0.0 0.00 0.00 0.00 91 1019.5
20260505123705 11 139 0.0 0.0 0.00 0.00 0.00 91 1019.6
20260505123202 11 139 0.0 0.0 0.00 0.00 0.00 92 1019.6
20260505122658 11 139 0.0 0.0 0.00 0.00 0.00 92 1019.5
20260505122155 11 139 0.0 0.0 0.00 0.00 0.00 92 1019.6
20260505121652 11 139 0.0 0.0 0.00 0.00 0.00 92 1019.5
20260505121149 11 139 0.0 0.0 0.00 0.00 0.00 92 1019.6
20260505120645 11 139 0.0 0.0 0.00 0.00 0.00 92 1019.3
20260505120141 11 139 0.0 0.0 0.00 0.00 0.00 92 1019.5
20260505115635 11 131 0.0 0.0 0.00 0.00 0.00 93 1019.4
20260505115133 11 131 0.0 0.0 0.00 0.00 0.00 93 1019.5
20260505114630 11 130 0.0 0.0 0.00 0.00 0.00 93 1019.5
20260505114126 11 130 0.0 0.0 0.00 0.00 0.00 93 1019.4
20260505113623 11 130 0.0 0.0 0.00 0.00 0.00 93 1019.4
20260505113119 11 130 0.0 0.0 0.00 0.00 0.00 93 1019.1
20260505112615 11 130 0.0 0.0 0.00 0.00 0.00 93 1019.6
20260505112114 11 131 0.0 0.0 0.00 0.00 0.00 93 1019.3
20260505111613 11 126 0.0 0.0 0.00 0.00 0.00 94 1019.4
20260505111109 10 126 0.0 0.0 0.00 0.00 0.00 94 1019.3
20260505110606 10 126 0.0 0.0 0.00 0.00 0.00 94 1019.3
20260505102039 10 116 0.0 0.0 0.00 0.00 0.00 94 1019.1
20260505101537 10 116 0.0 0.0 0.00 0.00 0.00 94 1018.9
20260505101033 10 115 0.0 0.0 0.00 0.00 0.00 94 1018.9
20260505100530 10 114 0.0 0.0 0.00 0.00 0.00 94 1018.8
20260505100027 10 107 0.0 0.0 0.00 0.00 0.00 93 1019.0
20260505095523 10 107 0.0 0.0 0.00 0.00 0.00 93 1019.1
20260505095020 10 102 0.0 0.0 0.00 0.00 0.00 93 1019.0
20260505094516 10 123 0.0 0.0 0.00 0.00 0.00 93 1018.8
20260505094012 10 123 0.0 0.0 0.00 0.00 0.00 93 1018.9
20260505093509 10 119 0.0 0.0 0.00 0.00 0.00 93 1018.7
20260505093007 10 119 0.0 0.0 0.00 0.00 0.00 92 1018.7
20260505092504 10 119 0.0 0.0 0.00 0.00 0.00 92 1018.6
20260505092001 10 118 0.0 0.0 0.00 0.00 0.00 92 1018.7
20260505091459 10 119 0.0 0.0 0.00 0.00 0.00 91 1018.7
20260505090957 11 99 0.0 0.0 0.00 0.00 0.00 91 1018.9
20260505090454 11 101 0.0 0.0 0.00 0.00 0.00 91 1018.5
20260505085952 11 98 0.0 0.0 0.00 0.00 0.00 91 1018.6
20260505085449 11 101 0.0 0.0 0.00 0.00 0.00 91 1018.5
20260505084948 11 108 0.0 0.0 0.00 0.00 0.00 91 1018.6
20260505084446 11 105 0.0 0.0 0.00 0.00 0.00 90 1018.5
20260505083943 11 102 0.0 0.0 0.00 0.00 0.00 90 1018.5
20260505083440 11 87 0.0 0.0 0.00 0.00 0.00 90 1018.6
20260505082936 11 86 0.0 0.0 0.00 0.00 0.00 90 1018.7
20260505082432 11 60 0.0 1.6 0.00 0.00 0.00 90 1018.5
20260505081930 11 66 0.0 1.6 0.00 0.00 0.00 90 1018.3
20260505081426 11 52 0.0 1.6 0.00 0.00 0.00 90 1018.3
20260505080923 11 64 1.6 1.6 0.00 0.00 0.00 89 1018.4
20260505080419 11 80 0.0 0.0 0.00 0.00 0.00 89 1018.2
20260505075914 11 63 0.0 0.0 0.00 0.00 0.00 89 1018.4
20260505075411 11 94 0.0 0.0 0.00 0.00 0.00 89 1018.2
20260505074909 11 81 0.0 0.0 0.00 0.00 0.00 88 1018.2
20260505074406 12 53 0.0 1.6 0.00 0.00 0.00 87 1018.1
20260505073903 12 82 0.0 0.0 0.00 0.00 0.00 87 1017.9
20260505073401 12 65 0.0 0.0 0.00 0.00 0.00 87 1018.2
20260505072858 12 87 0.0 0.0 0.00 0.00 0.00 87 1018.0
20260505072354 12 85 0.0 0.0 0.00 0.00 0.00 86 1017.8
20260505071850 12 92 0.0 0.0 0.00 0.00 0.00 86 1017.7
20260505071346 12 67 0.0 1.6 0.00 0.00 0.00 86 1017.8
20260505070845 12 99 0.0 0.0 0.00 0.00 0.00 86 1017.9
20260505070341 12 121 0.0 0.0 0.00 0.00 0.00 86 1017.9
20260505065836 12 86 0.0 0.0 0.00 0.00 0.00 85 1017.7
20260505065333 12 90 0.0 1.6 0.00 0.00 0.00 85 1017.6
20260505064830 12 110 0.0 0.0 0.00 0.00 0.00 85 1017.8
20260505064327 12 86 0.0 0.0 0.00 0.00 0.00 85 1017.5
20260505063826 12 116 0.0 0.0 0.00 0.00 0.00 85 1017.3
20260505063321 12 140 0.0 0.0 0.00 0.00 0.00 84 1017.3
20260505062818 13 95 0.0 0.0 0.00 0.00 0.00 84 1017.2
20260505062316 13 75 0.0 0.0 0.00 0.00 0.00 84 1017.3
20260505061812 13 72 1.6 1.6 0.00 0.00 0.00 83 1017.4
20260505061310 13 86 0.0 0.0 0.00 0.00 0.00 83 1017.5
20260505060807 13 92 0.0 0.0 0.00 0.00 0.00 83 1017.2
20260505060304 13 84 0.0 0.0 0.00 0.00 0.00 83 1017.3
20260505055800 13 84 0.0 0.0 0.00 0.00 0.00 83 1017.3
20260505055256 13 56 0.0 0.0 0.00 0.00 0.00 83 1017.2
20260505054754 13 55 0.0 0.0 0.00 0.00 0.00 83 1017.0
20260505054251 13 69 0.0 0.0 0.00 0.00 0.00 82 1017.1
20260505053749 13 79 0.0 0.0 0.00 0.00 0.00 82 1017.0
20260505053245 14 45 0.0 0.0 0.00 0.00 0.00 81 1017.0
20260505052743 14 74 0.0 0.0 0.00 0.00 0.00 81 1017.0
20260505052240 14 42 0.0 1.6 0.00 0.00 0.00 81 1017.0
20260505051736 14 56 0.0 0.0 0.00 0.00 0.00 80 1016.8
20260505051234 14 73 0.0 0.0 0.00 0.00 0.00 80 1016.8
20260505050732 15 64 1.6 1.6 0.00 0.00 0.00 80 1016.7
20260505050230 15 82 0.0 0.0 0.00 0.00 0.00 80 1016.6
20260505041700 16 89 0.0 1.6 0.00 0.00 0.00 76 1015.9
20260505041157 16 77 0.0 0.0 0.00 0.00 0.00 75 1016.0
20260505040654 17 104 0.0 1.6 0.00 0.00 0.00 75 1015.8
20260505040152 17 120 0.0 0.0 0.00 0.00 0.00 75 1015.6
20260505035648 17 198 0.0 1.6 0.00 0.00 0.00 74 1015.6
20260505035144 17 83 0.0 1.6 0.00 0.00 0.00 73 1015.5
20260505034641 17 80 0.0 0.0 0.00 0.00 0.00 73 1015.5
20260505034138 18 82 0.0 0.0 0.00 0.00 0.00 72 1015.3
20260505033634 18 85 0.0 0.0 0.00 0.00 0.00 72 1015.3
20260505033133 18 51 0.0 1.6 0.00 0.00 0.00 72 1015.3
20260505032631 18 96 0.0 0.0 0.00 0.00 0.00 72 1015.2
20260505032126 18 88 0.0 1.6 0.00 0.00 0.00 70 1015.2
20260505031624 18 73 0.0 0.0 0.00 0.00 0.00 70 1015.2
20260505031120 19 86 0.0 0.0 0.00 0.00 0.00 70 1015.1
20260505030617 19 91 0.0 0.0 0.00 0.00 0.00 70 1015.2
20260505030113 19 74 1.6 1.6 0.00 0.00 0.00 70 1014.9
20260505025609 20 92 0.0 0.0 0.00 0.00 0.00 69 1014.8
20260505025108 20 98 0.0 0.0 0.00 0.00 0.00 69 1014.6
20260505024605 20 106 0.0 0.0 0.00 0.00 0.00 69 1014.7
20260505024102 20 74 1.6 1.6 0.00 0.00 0.00 68 1014.7
20260505023559 20 58 1.6 1.6 0.00 0.00 0.00 67 1014.7
20260505023057 20 94 0.0 1.6 0.00 0.00 0.00 67 1014.7
20260505022554 20 169 0.0 1.6 0.00 0.00 0.00 67 1014.8
20260505022051 21 147 0.0 0.0 0.00 0.00 0.00 67 1014.6
20260505021547 21 201 0.0 1.6 0.00 0.00 0.00 67 1014.7
20260505021044 21 35 1.6 1.6 0.00 0.00 0.00 65 1014.7
20260505020544 21 126 0.0 1.6 0.00 0.00 0.00 67 1014.4
20260505020041 22 99 0.0 0.0 0.00 0.00 0.00 65 1014.7
20260505015538 22 208 1.6 1.6 0.00 0.00 0.00 65 1014.5
20260505015035 22 84 0.0 0.0 0.00 0.00 0.00 65 1014.6
20260505014532 22 228 3.2 3.2 0.00 0.00 0.00 65 1014.4